FW6620 Weather Reports


time (UTC)temp
F
wind
direction
speed
knots
gust
knots
rain 1hr
in
rain 24hr
in
rain mn
in
humidity
%
barometer
mb
20260906183550 90 0 0.0 1.7 0.00 0.04 0.04 62 1014.1
20260906183100 89 0 0.0 1.7 0.00 0.04 0.04 64 1014.1
20260906182548 88 102 0.0 1.7 0.00 0.04 0.04 65 1014.1
20260906182046 88 0 0.0 0.0 0.00 0.04 0.04 66 1014.2
20260906181558 87 0 0.0 0.0 0.00 0.04 0.04 68 1014.2
20260906181046 87 0 0.0 0.0 0.00 0.04 0.04 70 1014.4
20260906180547 86 0 0.0 0.0 0.00 0.04 0.04 72 1014.5
20260906180112 85 0 0.0 0.9 0.00 0.04 0.04 75 1014.6
20260906175547 85 0 0.0 1.7 0.00 0.04 0.04 77 1014.7
20260906175046 84 0 0.0 1.7 0.00 0.04 0.04 82 1014.8
20260906174606 83 0 0.0 1.7 0.00 0.04 0.04 83 1014.8
20260906174047 82 0 0.0 1.7 0.00 0.04 0.04 85 1014.9
20260906173546 81 0 0.0 1.7 0.00 0.04 0.04 87 1015.0
20260906173102 81 0 0.0 1.7 0.00 0.04 0.04 91 1015.1
20260906172548 81 0 0.0 0.9 0.00 0.04 0.04 95 1015.1
20260906172046 80 0 0.0 0.9 0.00 0.04 0.04 95 1015.3
20260906171557 81 0 0.0 0.0 0.00 0.04 0.04 96 1015.5
20260906171046 80 0 0.0 0.0 0.00 0.04 0.04 95 1015.6
20260906170546 80 0 0.0 0.0 0.00 0.04 0.04 96 1015.7
20260906170108 80 0 0.0 0.0 0.00 0.04 0.04 95 1015.7
20260906165548 80 0 0.0 0.0 0.02 0.04 0.04 95 1015.7
20260906165047 80 0 0.0 0.0 0.04 0.04 0.04 95 1015.7
20260906164605 80 0 0.0 0.0 0.04 0.04 0.04 94 1015.7
20260906164047 80 0 0.0 0.0 0.04 0.04 0.04 95 1015.8
20260906163549 80 0 0.0 0.0 0.04 0.04 0.04 95 1015.9
20260906163101 80 0 0.0 0.0 0.04 0.04 0.04 95 1015.8
20260906162547 79 0 0.0 0.0 0.04 0.04 0.04 94 1015.8
20260906162046 79 0 0.0 0.0 0.04 0.04 0.04 92 1015.9
20260906161556 79 0 0.0 0.0 0.04 0.04 0.04 91 1015.8
20260906161047 79 0 0.0 0.0 0.04 0.04 0.04 91 1015.8
20260906160546 79 0 0.0 0.9 0.04 0.04 0.04 89 1015.8
20260906160056 80 0 0.0 0.9 0.04 0.04 0.04 85 1015.9
20260906155547 81 0 0.0 0.9 0.02 0.02 0.02 85 1015.9
20260906155046 82 0 0.0 0.9 0.00 0.00 0.00 84 1015.9
20260906154606 83 0 0.0 0.9 0.00 0.00 0.00 84 1015.8
20260906154046 83 0 0.0 1.7 0.00 0.00 0.00 85 1015.8
20260906153546 83 0 0.0 4.3 0.00 0.00 0.00 84 1015.8
20260906153114 83 0 0.0 4.3 0.00 0.00 0.00 83 1015.7
20260906152546 83 100 0.0 4.3 0.00 0.00 0.00 83 1015.7
20260906152046 83 0 0.0 0.9 0.00 0.00 0.00 83 1015.6
20260906151603 83 0 0.0 0.9 0.00 0.00 0.00 83 1015.5
20260906151046 83 0 0.0 0.9 0.00 0.00 0.00 83 1015.5
20260906150547 83 93 0.0 0.0 0.00 0.00 0.00 83 1015.4
20260906150055 83 0 0.0 1.7 0.00 0.00 0.00 83 1015.4
20260906145547 83 0 0.0 1.7 0.00 0.00 0.00 83 1015.3
20260906145047 83 0 0.0 1.7 0.00 0.00 0.00 82 1015.1
20260906144601 83 0 0.0 0.9 0.00 0.00 0.00 83 1015.1
20260906144046 82 0 0.0 1.7 0.00 0.00 0.00 84 1015.1
20260906143547 82 0 0.0 1.7 0.00 0.00 0.00 83 1015.1
20260906143058 82 93 0.0 1.7 0.00 0.00 0.00 84 1015.1
20260906142546 82 0 0.0 1.7 0.00 0.00 0.00 84 1015.1
20260906142048 82 0 0.0 1.7 0.00 0.00 0.00 84 1015.2
20260906141558 82 0 0.0 1.7 0.00 0.00 0.00 84 1015.2
20260906141046 82 0 0.0 1.7 0.00 0.00 0.00 84 1015.1
20260906140546 82 0 0.0 2.6 0.00 0.00 0.00 84 1015.1
20260906140054 82 0 0.0 2.6 0.00 0.00 0.00 85 1015.0
20260906135546 81 0 0.0 2.6 0.00 0.00 0.00 85 1015.1
20260906135045 81 0 0.0 1.7 0.00 0.00 0.00 85 1014.9
20260906134615 81 0 0.0 1.7 0.00 0.00 0.00 85 1015.0
20260906134047 81 92 0.0 2.6 0.00 0.00 0.00 85 1015.0
20260906133547 81 0 0.0 2.6 0.00 0.00 0.00 85 1014.9
20260906133059 80 0 0.9 2.6 0.00 0.00 0.00 86 1014.8
20260906132547 80 0 0.0 0.9 0.00 0.00 0.00 86 1014.8
20260906132047 80 0 0.0 0.9 0.00 0.00 0.00 86 1014.7
20260906131557 80 0 0.0 0.9 0.00 0.00 0.00 87 1014.5
20260906131046 80 0 0.0 0.9 0.00 0.00 0.00 87 1014.4
20260906130546 79 0 0.0 0.9 0.00 0.00 0.00 87 1014.3
20260906130054 79 0 0.0 0.0 0.00 0.00 0.00 87 1014.4
20260906125546 79 0 0.0 0.0 0.00 0.00 0.00 86 1014.3
20260906125047 79 0 0.0 0.0 0.00 0.00 0.00 86 1014.3
20260906124600 79 0 0.0 0.0 0.00 0.00 0.00 86 1014.2
20260906124047 78 0 0.0 0.0 0.00 0.00 0.00 86 1014.2
20260906123547 79 0 0.0 0.0 0.00 0.00 0.00 86 1014.2
20260906123101 79 0 0.0 0.0 0.00 0.00 0.00 85 1014.2
20260906122547 79 0 0.0 0.0 0.00 0.00 0.00 85 1014.0
20260906122045 79 0 0.0 0.0 0.00 0.00 0.00 85 1013.9
20260906121555 79 0 0.0 0.0 0.00 0.00 0.00 84 1013.9
20260906121046 79 0 0.0 0.0 0.00 0.00 0.00 84 1013.8
20260906120549 79 0 0.0 0.0 0.00 0.00 0.00 84 1013.7
20260906120057 80 0 0.0 0.0 0.00 0.00 0.00 84 1013.6
20260906115546 80 0 0.0 0.0 0.00 0.00 0.00 83 1013.4
20260906115047 80 0 0.0 0.0 0.00 0.00 0.00 84 1013.5
20260906114602 80 0 0.0 0.0 0.00 0.00 0.00 84 1013.5
20260906114046 80 0 0.0 0.0 0.00 0.00 0.00 84 1013.4
20260906113546 80 0 0.0 0.0 0.00 0.00 0.00 84 1013.2
20260906113100 80 0 0.0 0.0 0.00 0.00 0.00 84 1013.1
20260906112546 80 0 0.0 0.0 0.00 0.00 0.00 84 1013.0
20260906112046 80 0 0.0 0.0 0.00 0.00 0.00 83 1012.9
20260906111558 80 0 0.0 0.0 0.00 0.00 0.00 83 1012.9
20260906111046 80 0 0.0 0.0 0.00 0.00 0.00 83 1012.8
20260906110546 80 0 0.0 0.0 0.00 0.00 0.00 83 1012.7
20260906110055 80 0 0.0 0.0 0.00 0.00 0.00 83 1012.8
20260906105546 80 0 0.0 0.0 0.00 0.00 0.00 82 1012.8
20260906105046 81 0 0.0 0.0 0.00 0.00 0.00 82 1012.7
20260906104557 81 0 0.0 0.0 0.00 0.00 0.00 82 1012.7
20260906104048 81 0 0.0 0.0 0.00 0.00 0.00 82 1012.8
20260906103547 81 0 0.0 0.0 0.00 0.00 0.00 82 1012.8
20260906103109 81 0 0.0 0.0 0.00 0.00 0.00 82 1012.8
20260906102548 81 0 0.0 0.0 0.00 0.00 0.00 82 1012.7
20260906102047 81 0 0.0 0.0 0.00 0.00 0.00 81 1012.7
20260906101556 81 0 0.0 0.0 0.00 0.00 0.00 81 1012.7
20260906101047 81 0 0.0 0.9 0.00 0.00 0.00 81 1012.7
20260906100546 81 0 0.0 0.9 0.00 0.00 0.00 81 1012.7
20260906100105 81 0 0.0 0.0 0.00 0.00 0.00 81 1012.5
20260906095547 82 0 0.0 0.0 0.00 0.00 0.00 82 1012.6
20260906095049 82 0 0.0 0.0 0.00 0.00 0.00 81 1012.7
20260906094556 82 0 0.0 0.0 0.00 0.00 0.00 81 1012.8
20260906094046 82 0 0.0 0.9 0.00 0.00 0.00 81 1012.8
20260906093548 82 0 0.0 0.9 0.00 0.00 0.00 80 1012.8
20260906093100 82 0 0.0 0.0 0.00 0.00 0.00 80 1012.7
20260906092548 82 0 0.0 0.0 0.00 0.00 0.00 80 1012.7
20260906092047 82 0 0.0 0.0 0.00 0.00 0.00 80 1012.7
20260906091555 82 0 0.0 0.0 0.00 0.00 0.00 79 1012.7
20260906091046 82 0 0.0 0.0 0.00 0.00 0.00 79 1012.6
20260906090550 82 0 0.0 0.0 0.00 0.00 0.00 80 1012.7
20260906090117 82 0 0.0 0.0 0.00 0.00 0.00 79 1012.7
20260906085545 82 0 0.0 1.7 0.00 0.00 0.00 80 1012.7
20260906085046 82 0 0.0 1.7 0.00 0.00 0.00 79 1012.6
20260906084600 82 92 0.0 2.6 0.00 0.00 0.00 79 1012.7
20260906084047 82 92 0.0 2.6 0.00 0.00 0.00 78 1012.6
20260906083546 82 90 0.0 0.0 0.00 0.00 0.00 79 1012.6
20260906083056 82 0 0.0 0.0 0.00 0.00 0.00 78 1012.7
20260906082547 83 0 0.0 0.0 0.00 0.00 0.00 79 1012.7
20260906082046 83 0 0.0 1.7 0.00 0.00 0.00 78 1012.8
20260906081558 83 0 0.0 1.7 0.00 0.00 0.00 79 1012.7
20260906081046 83 91 0.0 0.9 0.00 0.00 0.00 77 1012.8
20260906080546 83 0 0.0 3.5 0.00 0.00 0.00 78 1012.9
20260906080110 83 0 0.0 3.5 0.00 0.00 0.00 77 1013.0
20260906075549 83 0 0.0 2.6 0.00 0.00 0.00 77 1013.0
20260906075046 83 0 0.0 1.7 0.00 0.00 0.00 77 1013.0
20260906074609 84 0 0.0 0.9 0.00 0.00 0.00 76 1013.1
20260906074045 84 0 0.0 1.7 0.00 0.00 0.00 76 1013.2
20260906073546 84 0 0.0 1.7 0.00 0.00 0.00 76 1013.3
20260906073110 84 0 0.0 0.9 0.00 0.00 0.00 76 1013.3
20260906072546 84 0 0.0 1.7 0.00 0.00 0.00 76 1013.4
20260906072047 84 0 0.0 1.7 0.00 0.00 0.00 75 1013.4
20260906071556 84 0 0.0 1.7 0.00 0.00 0.00 75 1013.4
20260906071046 84 0 0.0 1.7 0.00 0.00 0.00 75 1013.4
20260906070545 84 0 0.0 2.6 0.00 0.00 0.00 75 1013.4
20260906070054 84 90 0.0 2.6 0.00 0.00 0.00 74 1013.6
20260906065547 84 90 0.0 1.7 0.00 0.00 0.00 74 1013.6
20260906065045 84 0 0.0 2.6 0.00 0.00 0.00 74 1013.6
20260906064559 85 0 0.0 2.6 0.00 0.00 0.00 74 1013.5
20260906064046 85 89 0.0 2.6 0.00 0.00 0.00 74 1013.6
20260906063545 85 0 0.0 3.5 0.00 0.00 0.00 74 1013.8
20260906063103 85 0 0.0 3.5 0.00 0.00 0.00 73 1013.8
20260906062546 85 0 0.0 3.5 0.00 0.00 0.00 73 1013.7
20260906062046 85 0 0.0 5.2 0.00 0.00 0.00 73 1013.8
20260906061556 85 0 0.9 5.2 0.00 0.00 0.00 73 1013.8
20260906061050 85 90 0.0 6.1 0.00 0.00 0.00 73 1014.0
20260906060546 85 91 0.0 6.1 0.00 0.00 0.00 72 1013.9
20260906060105 85 101 0.9 3.5 0.00 0.00 0.00 72 1014.0
20260906055546 86 89 0.0 3.5 0.00 0.00 0.00 72 1013.8
20260906055047 86 0 0.0 4.3 0.00 0.00 0.00 72 1013.8
20260906054600 86 0 0.0 4.3 0.00 0.00 0.00 72 1013.9
20260906054047 86 0 0.0 4.3 0.00 0.00 0.00 72 1013.7
20260906053546 86 87 0.0 4.3 0.00 0.00 0.00 72 1013.6
20260906053059 86 91 0.9 4.3 0.00 0.00 0.00 71 1013.6
20260906052546 86 96 0.9 2.6 0.00 0.00 0.00 71 1013.7
20260906052047 86 0 0.0 2.6 0.00 0.00 0.00 71 1013.6
20260906051603 86 0 0.0 3.5 0.00 0.00 0.00 71 1013.8
20260906051046 86 0 0.0 3.5 0.00 0.00 0.00 70 1013.7
20260906050547 87 97 0.0 3.5 0.00 0.00 0.00 70 1013.8
20260906050106 87 97 0.0 6.1 0.00 0.00 0.00 70 1013.8
20260906045546 87 95 0.9 6.1 0.00 0.00 0.00 70 1013.7
20260906045046 87 0 0.0 3.5 0.00 0.00 0.00 70 1013.8
20260906044559 87 0 0.0 4.3 0.00 0.00 0.00 70 1013.7
20260906044049 87 0 0.0 4.3 0.00 0.00 0.00 69 1013.8
20260906043546 87 116 0.9 4.3 0.00 0.00 0.00 69 1013.8
20260906043101 87 96 0.0 3.5 0.00 0.00 0.00 69 1013.9
20260906042546 87 0 0.0 4.3 0.00 0.00 0.00 69 1013.8
20260906042046 87 90 0.0 4.3 0.00 0.00 0.00 68 1013.8
20260906041602 88 0 0.0 3.5 0.00 0.00 0.00 68 1013.8
20260906041046 88 92 0.0 2.6 0.00 0.00 0.00 68 1013.8
20260906040546 88 91 0.0 4.3 0.00 0.00 0.00 68 1013.7
20260906040104 88 91 0.0 4.3 0.00 0.00 0.00 67 1013.7
20260906035548 88 0 0.0 2.6 0.00 0.00 0.00 67 1013.6
20260906035046 88 95 0.9 2.6 0.00 0.00 0.00 67 1013.7
20260906034629 88 0 0.0 2.6 0.00 0.00 0.00 66 1013.8
20260906034045 88 93 0.0 4.3 0.00 0.00 0.00 66 1013.8
20260906033546 89 0 0.0 4.3 0.00 0.00 0.00 66 1013.8
20260906033058 89 0 0.0 4.3 0.00 0.00 0.00 65 1013.7
20260906032546 89 100 0.0 4.3 0.00 0.00 0.00 65 1013.6
20260906032046 89 0 0.9 4.3 0.00 0.00 0.00 64 1013.5
20260906031605 89 99 0.0 3.5 0.00 0.00 0.00 63 1013.4
20260906031046 89 0 0.9 2.6 0.00 0.00 0.00 63 1013.4
20260906030546 89 97 0.0 2.6 0.00 0.00 0.00 62 1013.2
20260906030059 90 97 0.0 2.6 0.00 0.00 0.00 61 1013.3
20260906025546 90 0 0.0 1.7 0.00 0.00 0.00 61 1013.2
20260906025047 90 0 0.0 2.6 0.00 0.00 0.00 60 1013.0
20260906024558 90 0 0.0 2.6 0.00 0.00 0.00 60 1012.7
20260906024048 90 0 0.0 4.3 0.00 0.00 0.00 60 1012.5
20260906023546 90 95 0.9 4.3 0.00 0.00 0.00 60 1012.3
20260906023101 90 118 0.9 4.3 0.00 0.00 0.00 60 1012.3
20260906022547 90 0 0.0 3.5 0.00 0.00 0.00 60 1012.2
20260906022047 91 0 0.0 1.7 0.00 0.00 0.00 59 1012.0
20260906021601 91 0 0.0 3.5 0.00 0.00 0.00 60 1011.9
20260906021051 91 0 0.0 3.5 0.00 0.00 0.00 59 1011.8
20260906020546 91 102 0.0 3.5 0.00 0.00 0.00 59 1011.6
20260906020105 91 0 0.0 3.5 0.00 0.00 0.00 58 1011.6
20260906015546 91 101 0.0 3.5 0.00 0.00 0.00 58 1011.6
20260906015046 91 0 0.0 1.7 0.00 0.00 0.00 58 1011.6
20260906014604 91 0 0.0 1.7 0.00 0.00 0.00 57 1011.6
20260906014045 91 0 0.0 1.7 0.00 0.00 0.00 57 1011.5
20260906013548 91 0 0.0 1.7 0.00 0.00 0.00 56 1011.5
20260906013107 92 0 0.0 1.7 0.00 0.00 0.00 56 1011.5
20260906012545 92 0 0.0 1.7 0.00 0.00 0.00 56 1011.5
20260906012047 92 104 0.0 1.7 0.00 0.00 0.00 56 1011.4
20260906011602 92 0 0.0 1.7 0.00 0.00 0.00 55 1011.4
20260906011045 93 0 0.0 3.5 0.00 0.00 0.00 55 1011.3
20260906010545 93 0 0.0 3.5 0.00 0.00 0.00 54 1011.4
20260906010100 93 0 0.9 3.5 0.00 0.00 0.00 53 1011.3
20260906005546 94 189 0.9 2.6 0.00 0.00 0.00 53 1011.2
20260906005046 94 0 0.9 5.2 0.00 0.00 0.00 52 1011.3
20260906004605 95 0 0.9 5.2 0.00 0.00 0.00 51 1011.1
20260906004046 95 115 0.9 3.5 0.00 0.00 0.00 50 1011.1
20260906003546 95 0 0.0 3.5 0.00 0.00 0.00 49 1011.0
20260906003101 96 105 0.9 3.5 0.00 0.00 0.00 48 1011.0
20260906002547 96 104 0.0 2.6 0.00 0.00 0.00 47 1010.9
20260906002050 96 115 0.0 2.6 0.00 0.00 0.00 46 1010.9
20260906001559 96 0 0.0 2.6 0.00 0.00 0.00 47 1010.8
20260906001049 96 112 0.0 1.7 0.00 0.00 0.00 47 1010.9
20260906000546 96 0 0.0 1.7 0.00 0.00 0.00 46 1010.8
20260906000106 97 0 0.0 1.7 0.00 0.00 0.00 46 1010.8
20260905235546 97 0 0.0 1.7 0.00 0.00 0.00 46 1010.9
20260905235045 97 0 0.0 2.6 0.00 0.00 0.00 46 1010.8
20260905234610 97 0 0.0 2.6 0.00 0.00 0.00 45 1010.7
20260905234046 97 0 0.0 2.6 0.00 0.00 0.00 45 1010.8
20260905233546 97 0 0.0 1.7 0.00 0.00 0.00 45 1010.7
20260905233101 98 92 0.0 0.9 0.00 0.00 0.00 45 1010.7
20260905232545 98 92 0.0 2.6 0.00 0.00 0.00 44 1010.6
20260905232047 98 0 0.9 2.6 0.00 0.00 0.00 44 1010.7
20260905231604 98 91 0.0 1.7 0.00 0.00 0.00 44 1010.7
20260905231046 98 0 0.0 1.7 0.00 0.00 0.00 45 1010.7
20260905230546 98 0 0.0 3.5 0.00 0.00 0.00 45 1010.7
20260905230109 98 0 0.0 3.5 0.00 0.00 0.00 45 1010.7
20260905225547 98 90 0.0 3.5 0.00 0.00 0.00 44 1010.7
20260905225046 98 0 0.0 3.5 0.00 0.00 0.00 44 1010.8
20260905224612 98 0 0.0 1.7 0.00 0.00 0.00 44 1010.7
20260905224046 98 90 0.0 1.7 0.00 0.00 0.00 43 1010.7
20260905223545 98 0 0.0 1.7 0.00 0.00 0.00 43 1010.7
20260905223057 99 0 0.0 1.7 0.00 0.00 0.00 42 1010.7
20260905222549 98 89 0.0 3.5 0.00 0.00 0.00 43 1010.7
20260905222046 99 89 0.0 3.5 0.00 0.00 0.00 42 1010.7
20260905221556 99 0 0.0 2.6 0.00 0.00 0.00 43 1010.8
20260905221048 98 0 0.0 2.6 0.00 0.00 0.00 41 1010.9
20260905220546 98 91 0.0 2.6 0.00 0.00 0.00 41 1010.9
20260905220118 99 0 0.0 2.6 0.00 0.00 0.00 42 1011.1
20260905215546 99 68 0.0 1.7 0.00 0.00 0.00 41 1011.0
20260905215045 99 0 0.0 1.7 0.00 0.00 0.00 41 1011.0
20260905214558 99 0 0.0 2.6 0.00 0.00 0.00 42 1011.0
20260905214045 99 0 0.0 3.5 0.00 0.00 0.00 41 1011.1
20260905213545 99 68 0.9 3.5 0.00 0.00 0.00 41 1011.0
20260905213057 99 0 0.9 2.6 0.00 0.00 0.00 42 1011.0
20260905212545 99 65 0.0 2.6 0.00 0.00 0.00 41 1011.0
20260905212049 99 0 0.9 2.6 0.00 0.00 0.00 41 1011.1
20260905211554 99 0 0.0 3.5 0.00 0.00 0.00 41 1011.2
20260905211045 99 0 0.0 3.5 0.00 0.00 0.00 44 1011.3
20260905210545 99 65 0.0 2.6 0.00 0.00 0.00 43 1011.3
20260905210108 99 61 0.9 2.6 0.00 0.00 0.00 43 1011.3
20260905205551 99 61 0.0 2.6 0.00 0.00 0.00 44 1011.3
20260905205046 99 0 0.0 1.7 0.00 0.00 0.00 44 1011.6
20260905204557 98 62 0.9 2.6 0.00 0.00 0.00 44 1011.7
20260905204045 98 0 0.0 2.6 0.00 0.00 0.00 45 1011.7
20260905203549 98 62 0.0 3.5 0.00 0.00 0.00 45 1011.8
20260905203108 98 62 0.0 3.5 0.00 0.00 0.00 45 1011.9
20260905202545 98 60 0.0 2.6 0.00 0.00 0.00 45 1012.0
20260905202049 98 60 0.0 2.6 0.00 0.00 0.00 45 1012.2
20260905201554 98 0 0.0 1.7 0.00 0.00 0.00 44 1012.2
20260905201045 98 0 0.0 2.6 0.00 0.00 0.00 45 1012.3
20260905200546 98 60 0.0 3.5 0.00 0.00 0.00 44 1012.4
20260905200105 98 0 0.0 5.2 0.00 0.00 0.00 46 1012.5
20260905195548 98 0 0.9 5.2 0.00 0.00 0.00 46 1012.6
20260905195047 97 58 0.9 5.2 0.00 0.00 0.00 46 1012.7
20260905194557 97 68 0.0 3.5 0.00 0.00 0.00 48 1012.5
20260905194048 97 0 0.0 3.5 0.00 0.00 0.00 47 1012.6
20260905193551 97 64 0.0 3.5 0.00 0.00 0.00 47 1012.7
20260905193054 97 64 0.9 3.5 0.00 0.00 0.00 46 1012.9
20260905192551 97 0 0.0 2.6 0.00 0.00 0.00 48 1013.0
20260905192049 97 0 0.0 5.2 0.00 0.00 0.00 47 1013.0
20260905191609 97 0 0.9 5.2 0.00 0.00 0.00 47 1013.1
20260905191048 97 62 0.9 5.2 0.00 0.00 0.00 47 1013.2
20260905190547 96 0 0.0 3.5 0.00 0.00 0.00 48 1013.2
20260905185547 96 72 0.9 3.5 0.00 0.00 0.00 50 1013.5
20260905185047 96 0 0.0 2.6 0.00 0.00 0.00 48 1013.5
20260905184602 96 70 0.0 3.5 0.00 0.00 0.00 52 1013.7
20260905184047 96 0 0.0 3.5 0.00 0.00 0.00 50 1013.8